Flagstaff, AZ

3:49 AM MST on May 28, 2018 (GMT -0700)
Flagstaff Pulliam

Weather History for KFLG - September, 2013

Change the Weather History Date:

Thursday, September 5, 2013

  Actual Average Record
Temperature  
Mean Temperature 64 °F 61 °F  
Max Temperature 78 °F 76 °F 89 °F (1945)
Min Temperature 50 °F 46 °F 31 °F (1961)
Degree Days  
Heating Degree Days 1 4  
Month to date heating degree days 3 19  
Since 1 July heating degree days 61 107  
Cooling Degree Days 0 0  
Month to date cooling degree days 4 0  
Year to date cooling degree days 148 114  
Growing Degree Days 14 (Base 50)    
Moisture  
Dew Point 49 °F    
Average Humidity 60    
Maximum Humidity 89    
Minimum Humidity 31    
Precipitation  
Precipitation 0.00 in 0.10 in 2.84 in (1970)
Month to date precipitation T 0.46  
Year to date precipitation 17.68 14.65  
Snow  
Snow 0.00 in 0.00 in 0.00 in (2002)
Month to date snowfall 0.0 0.0  
Since 1 July snowfall 0.0 0.0  
Snow Depth 0.00 in    
Sea Level Pressure  
Sea Level Pressure 30.08 in    
Wind  
Wind Speed 2 mph (SSW)    
Max Wind Speed 16 mph    
Max Gust Speed 18 mph    
Visibility 10 miles    
Events      
T = Trace of Precipitation, MM = Missing Value Source: NWS Daily Summary

Daily Weather History Graph

Daily Weather History Graph

Search for Another Location

Airport or City:

Astronomy

Sep. 05, 2013 Rise Set
Actual Time 6:02 AM MST 6:47 PM MST
Civil Twilight 5:36 AM MST 7:13 PM MST
Nautical Twilight 5:06 AM MST 7:43 PM MST
Astronomical Twilight 4:35 AM MST 8:14 PM MST
Moon 6:15 AM MST (9/5) 6:44 PM MST (9/5)
Length of Visible Light 13h 36m
Length of Day
12h 45m
New Moon, 0% of the Moon is Illuminated
Sep 5
New Moon
Sep 12
First Quarter
Sep 19
Full
Sep 26
Last Quarter
Oct 4
New

Hourly Weather History & Observations

Time (MST) Temp. Dew Point Humidity Pressure Visibility Wind Dir Wind Speed Gust Speed Precip Events Conditions
12:57 AM 57.0 °F 51.1 °F 81% 30.06 in 10.0 mi Calm Calm - N/A   Clear
1:57 AM 55.0 °F 50.0 °F 83% 30.06 in 10.0 mi Calm Calm - N/A   Clear
2:57 AM 54.0 °F 50.0 °F 86% 30.09 in 10.0 mi Calm Calm - N/A   Scattered Clouds
3:57 AM 53.1 °F 48.9 °F 86% 30.09 in 10.0 mi Calm Calm - N/A   Clear
4:57 AM 51.1 °F 48.9 °F 92% 30.10 in 10.0 mi Calm Calm - N/A   Clear
6:57 AM 53.1 °F 50.0 °F 89% 30.13 in 10.0 mi Calm Calm - N/A   Mostly Cloudy
7:57 AM 63.0 °F 54.0 °F 72% 30.12 in 10.0 mi Calm Calm - N/A   Scattered Clouds
8:57 AM 71.1 °F 52.0 °F 51% 30.10 in 10.0 mi Calm Calm - N/A   Clear
9:57 AM 73.0 °F 44.1 °F 35% 30.09 in 10.0 mi SSW 8.1 mph - N/A   Scattered Clouds
10:57 AM 75.0 °F 44.1 °F 33% 30.10 in 10.0 mi SSW 9.2 mph - N/A   Partly Cloudy
11:57 AM 75.9 °F 43.0 °F 31% 30.09 in 10.0 mi Variable 6.9 mph 18.4 mph N/A   Scattered Clouds
12:57 PM 75.0 °F 43.0 °F 32% 30.09 in 10.0 mi South 6.9 mph - N/A   Partly Cloudy
1:57 PM 75.9 °F 45.0 °F 33% 30.07 in 10.0 mi SW 8.1 mph - N/A   Mostly Cloudy
2:57 PM 75.9 °F 46.0 °F 35% 30.07 in 10.0 mi SSW 11.5 mph - N/A   Overcast
3:57 PM 75.0 °F 46.0 °F 36% 30.07 in 10.0 mi South 3.5 mph - N/A   Scattered Clouds
4:57 PM 77.0 °F 45.0 °F 32% 30.06 in 10.0 mi Calm Calm - N/A   Clear
5:57 PM 73.9 °F 48.9 °F 41% 30.06 in 10.0 mi Calm Calm - N/A   Partly Cloudy
6:57 PM 64.9 °F 51.1 °F 61% 30.09 in 10.0 mi Calm Calm - N/A   Clear
7:57 PM 61.0 °F 52.0 °F 72% 30.07 in 10.0 mi Calm Calm - N/A   Clear
8:57 PM 59.0 °F 52.0 °F 78% 30.08 in 10.0 mi Calm Calm - N/A   Mostly Cloudy
9:57 PM 57.0 °F 51.1 °F 81% 30.08 in 10.0 mi Calm Calm - N/A   Partly Cloudy
10:57 PM 55.9 °F 50.0 °F 80% 30.06 in 10.0 mi Calm Calm - N/A   Clear
11:57 PM 55.0 °F 50.0 °F 83% 30.07 in 10.0 mi Calm Calm - N/A   Scattered Clouds